Luhe — 3FVZ6 — position and weather

sailwx.info

Track history (hours):
 
Tides and Currents Weather Stations Pressure Air Temp Water Temp Dewpoint Dewpoint Depression Visibility Wind Speed Wind Dir Waves Ship Positions

Luhe

Last reported at 2014-Aug-21 07:33 UTC. Time now 2014-Aug-21 08:20 UTC.
Position N 24°26' E 119°03'.

Length 280 m; draft 10.3 m.

Type: Cargo ship. MMSI: 354812000.

Date/timePositionNaut miles runAvg speedWind from/ knotsBaromVisibWave heightAir tempDewpointWater temp
2014-Aug-21 07:33N 24°26' E 119°03'1615.8
2014-Aug-21 06:33N 24°36' E 119°17'1615.7
2014-Aug-21 05:33N 24°45' E 119°30'1515.3
2014-Aug-21 04:33N 24°55' E 119°43'29917.3
2014-Aug-20 11:17N 29°11' E 122°37'3217.6
2014-Aug-20 09:29N 29°40' E 122°52'3516.9
2014-Aug-20 07:24N 30°14' E 122°59'1417.0
2014-Aug-20 06:33N 30°28' E 123°00'1817.9
2014-Aug-20 05:33N 30°46' E 122°60'1917.8
2014-Aug-20 04:31N 31°03' E 122°50'1614.9
2014-Aug-20 03:28N 31°05' E 122°32'1211.7
2014-Aug-20 02:30N 31°06' E 122°19'2912.9
2014-Aug-20 00:16N 31°17' E 121°48'810.4
2014-Aug-19 23:31N 31°20' E 121°40'0 0.1
2014-Aug-19 22:18N 31°20' E 121°40'0 0.0
2014-Aug-19 21:18N 31°20' E 121°40'0 0.0
2014-Aug-19 19:30N 31°20' E 121°40'0 0.0
2014-Aug-19 18:12N 31°20' E 121°40'0 0.0
2014-Aug-19 17:24N 31°20' E 121°40'0 0.0
2014-Aug-19 16:30N 31°20' E 121°40'0 0.0
2014-Aug-19 15:30N 31°20' E 121°40'0 0.0
2014-Aug-19 14:24N 31°20' E 121°40'0 0.0
2014-Aug-19 13:30N 31°20' E 121°40'0 0.0
2014-Aug-19 12:30N 31°20' E 121°40'0 0.0
2014-Aug-19 11:24N 31°20' E 121°40'0 0.0
2014-Aug-19 10:18N 31°20' E 121°40'0 0.0
2014-Aug-19 09:30N 31°20' E 121°40'34 2.1
2014-Aug-18 17:29N 31°07' E 122°17'12 9.6
2014-Aug-18 16:14N 31°07' E 122°31'811.2
2014-Aug-18 15:30N 31°07' E 122°40'7 1.8
2014-Aug-18 11:28N 31°03' E 122°47'36 2.1
2014-Aug-17 18:24N 30°34' E 123°11'8 8.9
2014-Aug-17 17:31N 30°26' E 123°11'10 8.9
2014-Aug-17 16:23N 30°16' E 123°09'24 8.2
2014-Aug-17 13:27N 29°59' E 122°50'8 8.5
2014-Aug-17 12:33N 29°53' E 122°44'8 8.3
2014-Aug-17 11:33N 29°46' E 122°39'9 9.5
2014-Aug-17 10:33N 29°43' E 122°29'10 9.6
2014-Aug-17 09:33N 29°46' E 122°18'1111.2
2014-Aug-17 08:33N 29°54' E 122°10'6 6.0
2014-Aug-17 07:33N 29°53' E 122°03'0 0.0
2014-Aug-17 06:33N 29°53' E 122°03'0 0.0
2014-Aug-17 05:33N 29°53' E 122°03'0 0.0
2014-Aug-17 04:33N 29°53' E 122°03'0 0.0
2014-Aug-17 03:33N 29°53' E 122°03'0 0.0
2014-Aug-17 02:33N 29°53' E 122°03'0 0.1
2014-Aug-17 01:33N 29°53' E 122°03'0 0.1
2014-Aug-17 00:33N 29°53' E 122°03'0 0.0
2014-Aug-16 23:33N 29°53' E 122°03'0 0.0
2014-Aug-16 22:33N 29°53' E 122°03'0 0.0
2014-Aug-16 21:33N 29°53' E 122°03'0 0.0
2014-Aug-16 20:33N 29°53' E 122°03'0 0.0
2014-Aug-16 19:33N 29°53' E 122°03'0 0.0
2014-Aug-16 18:33N 29°53' E 122°03'0 0.0
2014-Aug-16 17:33N 29°53' E 122°03'0 0.0
2014-Aug-16 16:33N 29°53' E 122°03'1 1.5
2014-Aug-16 15:33N 29°55' E 122°03'1010.1
2014-Aug-16 14:33N 29°50' E 122°13'1110.9
2014-Aug-16 13:33N 29°44' E 122°24'6 5.6
2014-Aug-16 12:31N 29°38' E 122°25'0 0.1
2014-Aug-16 11:31N 29°38' E 122°25'0 0.0
2014-Aug-16 10:25N 29°38' E 122°25'0 0.0
2014-Aug-16 09:31N 29°38' E 122°25'0 0.1
2014-Aug-16 08:31N 29°38' E 122°25'0 0.2
2014-Aug-16 07:31N 29°38' E 122°25'0 0.1
2014-Aug-16 06:25N 29°38' E 122°25'0 0.1
2014-Aug-16 05:13N 29°38' E 122°25'0 0.1
2014-Aug-16 04:25N 29°38' E 122°25'0 0.0
2014-Aug-16 03:31N 29°38' E 122°25'0 0.1
2014-Aug-16 02:25N 29°38' E 122°25'0 0.1
2014-Aug-16 01:31N 29°38' E 122°25'0 0.1
2014-Aug-16 00:25N 29°38' E 122°25'0 0.1
2014-Aug-15 23:31N 29°38' E 122°25'0 0.1
2014-Aug-15 22:31N 29°38' E 122°25'0 0.0
2014-Aug-15 21:31N 29°38' E 122°25'0 0.1
2014-Aug-15 20:31N 29°38' E 122°25'0 0.0
2014-Aug-15 19:31N 29°38' E 122°25'0 0.2
2014-Aug-15 18:31N 29°38' E 122°25'0 0.1
2014-Aug-15 17:31N 29°38' E 122°25'0 0.1
2014-Aug-15 16:19N 29°38' E 122°25'0 0.0
2014-Aug-15 15:31N 29°38' E 122°25'0 0.1
2014-Aug-15 14:19N 29°38' E 122°25'0 0.1
2014-Aug-15 13:31N 29°38' E 122°25'0 0.1
2014-Aug-15 12:25N 29°38' E 122°25'0 0.0
2014-Aug-15 11:31N 29°38' E 122°25'5 5.1
2014-Aug-15 10:33N 29°34' E 122°29'1311.5
2014-Aug-15 09:25N 29°23' E 122°37'  
Track history (hours):
 
Tides and Currents Weather Stations Pressure Air Temp Water Temp Dewpoint Dewpoint Depression Visibility Wind Speed Wind Dir Waves Ship Positions

Luhe

Last reported at 2014-Aug-21 07:33 UTC. Time now 2014-Aug-21 08:20 UTC.
Position N 24°26' E 119°03'.

Length 280 m; draft 10.3 m.

Type: Cargo ship. MMSI: 354812000.

Date/timePositionNaut miles runAvg speedWind from/ knotsBaromVisibWave heightAir tempDewpointWater temp
2014-Aug-21 07:33N 24°26' E 119°03'1615.8
2014-Aug-21 06:33N 24°36' E 119°17'1615.7
2014-Aug-21 05:33N 24°45' E 119°30'1515.3
2014-Aug-21 04:33N 24°55' E 119°43'29917.3
2014-Aug-20 11:17N 29°11' E 122°37'3217.6
2014-Aug-20 09:29N 29°40' E 122°52'3516.9
2014-Aug-20 07:24N 30°14' E 122°59'1417.0
2014-Aug-20 06:33N 30°28' E 123°00'1817.9
2014-Aug-20 05:33N 30°46' E 122°60'1917.8
2014-Aug-20 04:31N 31°03' E 122°50'1614.9
2014-Aug-20 03:28N 31°05' E 122°32'1211.7
2014-Aug-20 02:30N 31°06' E 122°19'2912.9
2014-Aug-20 00:16N 31°17' E 121°48'810.4
2014-Aug-19 23:31N 31°20' E 121°40'0 0.1
2014-Aug-19 22:18N 31°20' E 121°40'0 0.0
2014-Aug-19 21:18N 31°20' E 121°40'0 0.0
2014-Aug-19 19:30N 31°20' E 121°40'0 0.0
2014-Aug-19 18:12N 31°20' E 121°40'0 0.0
2014-Aug-19 17:24N 31°20' E 121°40'0 0.0
2014-Aug-19 16:30N 31°20' E 121°40'0 0.0
2014-Aug-19 15:30N 31°20' E 121°40'0 0.0
2014-Aug-19 14:24N 31°20' E 121°40'0 0.0
2014-Aug-19 13:30N 31°20' E 121°40'0 0.0
2014-Aug-19 12:30N 31°20' E 121°40'0 0.0
2014-Aug-19 11:24N 31°20' E 121°40'0 0.0
2014-Aug-19 10:18N 31°20' E 121°40'0 0.0
2014-Aug-19 09:30N 31°20' E 121°40'34 2.1
2014-Aug-18 17:29N 31°07' E 122°17'12 9.6
2014-Aug-18 16:14N 31°07' E 122°31'811.2
2014-Aug-18 15:30N 31°07' E 122°40'7 1.8
2014-Aug-18 11:28N 31°03' E 122°47'36 2.1
2014-Aug-17 18:24N 30°34' E 123°11'8 8.9
2014-Aug-17 17:31N 30°26' E 123°11'10 8.9
2014-Aug-17 16:23N 30°16' E 123°09'24 8.2
2014-Aug-17 13:27N 29°59' E 122°50'8 8.5
2014-Aug-17 12:33N 29°53' E 122°44'8 8.3
2014-Aug-17 11:33N 29°46' E 122°39'9 9.5
2014-Aug-17 10:33N 29°43' E 122°29'10 9.6
2014-Aug-17 09:33N 29°46' E 122°18'1111.2
2014-Aug-17 08:33N 29°54' E 122°10'6 6.0
2014-Aug-17 07:33N 29°53' E 122°03'0 0.0
2014-Aug-17 06:33N 29°53' E 122°03'0 0.0
2014-Aug-17 05:33N 29°53' E 122°03'0 0.0
2014-Aug-17 04:33N 29°53' E 122°03'0 0.0
2014-Aug-17 03:33N 29°53' E 122°03'0 0.0
2014-Aug-17 02:33N 29°53' E 122°03'0 0.1
2014-Aug-17 01:33N 29°53' E 122°03'0 0.1
2014-Aug-17 00:33N 29°53' E 122°03'0 0.0
2014-Aug-16 23:33N 29°53' E 122°03'0 0.0
2014-Aug-16 22:33N 29°53' E 122°03'0 0.0
2014-Aug-16 21:33N 29°53' E 122°03'0 0.0
2014-Aug-16 20:33N 29°53' E 122°03'0 0.0
2014-Aug-16 19:33N 29°53' E 122°03'0 0.0
2014-Aug-16 18:33N 29°53' E 122°03'0 0.0
2014-Aug-16 17:33N 29°53' E 122°03'0 0.0
2014-Aug-16 16:33N 29°53' E 122°03'1 1.5
2014-Aug-16 15:33N 29°55' E 122°03'1010.1
2014-Aug-16 14:33N 29°50' E 122°13'1110.9
2014-Aug-16 13:33N 29°44' E 122°24'6 5.6
2014-Aug-16 12:31N 29°38' E 122°25'0 0.1
2014-Aug-16 11:31N 29°38' E 122°25'0 0.0
2014-Aug-16 10:25N 29°38' E 122°25'0 0.0
2014-Aug-16 09:31N 29°38' E 122°25'0 0.1
2014-Aug-16 08:31N 29°38' E 122°25'0 0.2
2014-Aug-16 07:31N 29°38' E 122°25'0 0.1
2014-Aug-16 06:25N 29°38' E 122°25'0 0.1
2014-Aug-16 05:13N 29°38' E 122°25'0 0.1
2014-Aug-16 04:25N 29°38' E 122°25'0 0.0
2014-Aug-16 03:31N 29°38' E 122°25'0 0.1
2014-Aug-16 02:25N 29°38' E 122°25'0 0.1
2014-Aug-16 01:31N 29°38' E 122°25'0 0.1
2014-Aug-16 00:25N 29°38' E 122°25'0 0.1
2014-Aug-15 23:31N 29°38' E 122°25'0 0.1
2014-Aug-15 22:31N 29°38' E 122°25'0 0.0
2014-Aug-15 21:31N 29°38' E 122°25'0 0.1
2014-Aug-15 20:31N 29°38' E 122°25'0 0.0
2014-Aug-15 19:31N 29°38' E 122°25'0 0.2
2014-Aug-15 18:31N 29°38' E 122°25'0 0.1
2014-Aug-15 17:31N 29°38' E 122°25'0 0.1
2014-Aug-15 16:19N 29°38' E 122°25'0 0.0
2014-Aug-15 15:31N 29°38' E 122°25'0 0.1
2014-Aug-15 14:19N 29°38' E 122°25'0 0.1
2014-Aug-15 13:31N 29°38' E 122°25'0 0.1
2014-Aug-15 12:25N 29°38' E 122°25'0 0.0
2014-Aug-15 11:31N 29°38' E 122°25'5 5.1
2014-Aug-15 10:33N 29°34' E 122°29'1311.5
2014-Aug-15 09:25N 29°23' E 122°37'  

Dump ship's entire track history